| time (UTC) | temp C | wind direction | speed KPH | gust KPH | rain 1hr cm | rain 24hr cm | rain mn cm | humidity % | barometer mb |
| 20260506041004 | 16 | 0 | 0.0 | 0.0 | 0.00 | 0.00 | 0.00 | 86 | 1016.4 |
| 20260506040504 | 16 | 0 | 0.0 | 0.0 | 0.00 | 0.00 | 0.00 | 86 | 1016.3 |
| 20260506040004 | 16 | 186 | 0.0 | 1.6 | 0.00 | 0.00 | 0.00 | 86 | 1016.4 |
| 20260506035503 | 16 | 186 | 0.0 | 1.6 | 0.00 | 0.00 | 0.00 | 86 | 1016.3 |
| 20260506035004 | 16 | 155 | 0.0 | 1.6 | 0.00 | 0.00 | 0.00 | 86 | 1016.3 |
| 20260506034503 | 16 | 155 | 0.0 | 1.6 | 0.00 | 0.00 | 0.00 | 85 | 1016.1 |
| 20260506034004 | 16 | 178 | 0.0 | 1.6 | 0.00 | 0.00 | 0.00 | 85 | 1016.3 |
| 20260506033503 | 16 | 178 | 0.0 | 1.6 | 0.00 | 0.00 | 0.00 | 85 | 1016.4 |
| 20260506033215 | 16 | 178 | 0.0 | 1.6 | 0.00 | 0.00 | 0.00 | 85 | 1016.2 |
| 20260506032503 | 16 | 0 | 0.0 | 0.0 | 0.00 | 0.00 | 0.00 | 85 | 1016.3 |
| 20260506032003 | 16 | 0 | 0.0 | 0.0 | 0.00 | 0.00 | 0.00 | 85 | 1016.2 |
| 20260506031504 | 16 | 181 | 0.0 | 1.6 | 0.00 | 0.00 | 0.00 | 85 | 1016.3 |
| 20260506031004 | 16 | 184 | 0.0 | 1.6 | 0.00 | 0.00 | 0.00 | 84 | 1016.4 |
| 20260506030504 | 16 | 185 | 0.0 | 1.6 | 0.00 | 0.00 | 0.00 | 84 | 1016.5 |
| 20260506030003 | 16 | 195 | 0.0 | 1.6 | 0.00 | 0.00 | 0.00 | 84 | 1016.5 |
| 20260506025504 | 16 | 187 | 0.0 | 1.6 | 0.00 | 0.00 | 0.00 | 84 | 1016.5 |
| 20260506025214 | 16 | 183 | 0.0 | 1.6 | 0.00 | 0.00 | 0.00 | 84 | 1016.4 |
| 20260506024504 | 16 | 0 | 0.0 | 0.0 | 0.00 | 0.00 | 0.00 | 84 | 1016.5 |
| 20260506024215 | 16 | 0 | 0.0 | 0.0 | 0.00 | 0.00 | 0.00 | 84 | 1016.4 |
| 20260506023504 | 16 | 0 | 0.0 | 0.0 | 0.00 | 0.00 | 0.00 | 84 | 1016.4 |
| 20260506023003 | 16 | 0 | 0.0 | 0.0 | 0.00 | 0.00 | 0.00 | 84 | 1016.4 |
| 20260506022503 | 16 | 0 | 0.0 | 0.0 | 0.00 | 0.00 | 0.00 | 83 | 1016.5 |
| 20260506022003 | 16 | 0 | 0.0 | 0.0 | 0.00 | 0.00 | 0.00 | 83 | 1016.5 |
| 20260506021503 | 16 | 0 | 0.0 | 0.0 | 0.00 | 0.00 | 0.00 | 82 | 1016.6 |
| 20260506021003 | 16 | 0 | 0.0 | 0.0 | 0.00 | 0.00 | 0.00 | 82 | 1016.5 |
| 20260506020503 | 16 | 0 | 0.0 | 0.0 | 0.00 | 0.00 | 0.00 | 82 | 1016.2 |
| 20260506020004 | 16 | 236 | 0.0 | 1.6 | 0.00 | 0.00 | 0.00 | 82 | 1016.3 |
| 20260506015504 | 16 | 236 | 0.0 | 1.6 | 0.00 | 0.00 | 0.00 | 82 | 1016.3 |
| 20260506015003 | 16 | 0 | 0.0 | 0.0 | 0.00 | 0.00 | 0.00 | 81 | 1016.3 |
| 20260506014503 | 16 | 204 | 0.0 | 1.6 | 0.00 | 0.00 | 0.00 | 81 | 1016.3 |
| 20260506014004 | 16 | 204 | 0.0 | 1.6 | 0.00 | 0.00 | 0.00 | 81 | 1016.5 |
| 20260506013713 | 16 | 204 | 0.0 | 1.6 | 0.00 | 0.00 | 0.00 | 81 | 1016.5 |
| 20260506013216 | 16 | 225 | 0.0 | 0.0 | 0.00 | 0.00 | 0.00 | 82 | 1016.5 |
| 20260506012504 | 16 | 221 | 0.0 | 0.0 | 0.00 | 0.00 | 0.00 | 82 | 1016.5 |
| 20260506012004 | 16 | 214 | 0.0 | 1.6 | 0.00 | 0.00 | 0.00 | 82 | 1016.4 |
| 20260506011504 | 16 | 213 | 0.0 | 1.6 | 0.00 | 0.00 | 0.00 | 82 | 1016.5 |
| 20260506011213 | 16 | 0 | 0.0 | 0.0 | 0.00 | 0.00 | 0.00 | 83 | 1016.6 |
| 20260506010503 | 16 | 219 | 0.0 | 1.6 | 0.00 | 0.00 | 0.00 | 83 | 1016.5 |
| 20260506010003 | 16 | 0 | 0.0 | 0.0 | 0.00 | 0.00 | 0.00 | 83 | 1016.6 |
| 20260506005504 | 16 | 0 | 0.0 | 0.0 | 0.00 | 0.00 | 0.00 | 83 | 1016.7 |
| 20260506005004 | 16 | 0 | 0.0 | 0.0 | 0.00 | 0.00 | 0.00 | 83 | 1016.7 |
| 20260506004504 | 16 | 0 | 0.0 | 0.0 | 0.00 | 0.00 | 0.00 | 82 | 1016.7 |
| 20260506004004 | 16 | 0 | 0.0 | 0.0 | 0.00 | 0.00 | 0.00 | 83 | 1016.7 |
| 20260506003714 | 16 | 0 | 0.0 | 0.0 | 0.00 | 0.00 | 0.00 | 83 | 1016.8 |
| 20260506003003 | 16 | 141 | 0.0 | 1.6 | 0.00 | 0.00 | 0.00 | 83 | 1016.6 |
| 20260506002715 | 16 | 141 | 0.0 | 1.6 | 0.00 | 0.00 | 0.00 | 83 | 1016.6 |
| 20260506002004 | 16 | 0 | 0.0 | 0.0 | 0.00 | 0.00 | 0.00 | 83 | 1016.9 |
| 20260506001503 | 16 | 0 | 0.0 | 0.0 | 0.00 | 0.00 | 0.00 | 83 | 1017.0 |
| 20260506001003 | 16 | 0 | 0.0 | 0.0 | 0.00 | 0.00 | 0.00 | 83 | 1017.2 |
| 20260506000503 | 16 | 0 | 0.0 | 0.0 | 0.00 | 0.00 | 0.00 | 83 | 1017.1 |
| 20260506000004 | 16 | 0 | 0.0 | 0.0 | 0.00 | 0.00 | 0.00 | 83 | 1017.2 |
| 20260505235503 | 16 | 0 | 0.0 | 0.0 | 0.00 | 0.00 | 0.00 | 83 | 1017.3 |
| 20260505235004 | 16 | 0 | 0.0 | 0.0 | 0.00 | 0.00 | 0.00 | 83 | 1017.1 |
| 20260505234504 | 16 | 0 | 0.0 | 0.0 | 0.00 | 0.00 | 0.00 | 83 | 1017.5 |
| 20260505234004 | 16 | 0 | 0.0 | 0.0 | 0.00 | 0.00 | 0.00 | 83 | 1017.6 |
| 20260505233504 | 16 | 0 | 0.0 | 0.0 | 0.00 | 0.00 | 0.00 | 83 | 1017.4 |
| 20260505233003 | 16 | 0 | 0.0 | 0.0 | 0.00 | 0.00 | 0.00 | 83 | 1017.4 |
| 20260505232503 | 16 | 0 | 0.0 | 0.0 | 0.00 | 0.00 | 0.00 | 83 | 1017.4 |
| 20260505232004 | 16 | 181 | 0.0 | 1.6 | 0.00 | 0.00 | 0.00 | 83 | 1017.4 |
| 20260505231717 | 16 | 181 | 0.0 | 1.6 | 0.00 | 0.00 | 0.00 | 83 | 1017.3 |
| 20260505230503 | 16 | 167 | 0.0 | 3.2 | 0.00 | 0.00 | 0.00 | 83 | 1017.4 |
| 20260505230004 | 16 | 167 | 0.0 | 3.2 | 0.00 | 0.00 | 0.00 | 83 | 1017.3 |
| 20260505225504 | 16 | 161 | 0.0 | 3.2 | 0.00 | 0.00 | 0.00 | 83 | 1017.4 |
| 20260505225216 | 16 | 161 | 0.0 | 3.2 | 0.00 | 0.00 | 0.00 | 83 | 1017.5 |
| 20260505224504 | 16 | 119 | 0.0 | 3.2 | 0.00 | 0.00 | 0.00 | 83 | 1017.5 |
| 20260505224003 | 16 | 97 | 0.0 | 3.2 | 0.00 | 0.00 | 0.00 | 83 | 1017.6 |
| 20260505223504 | 16 | 98 | 0.0 | 3.2 | 0.00 | 0.00 | 0.00 | 83 | 1017.5 |
| 20260505223004 | 16 | 113 | 0.0 | 3.2 | 0.00 | 0.00 | 0.00 | 83 | 1017.5 |
| 20260505222503 | 16 | 119 | 0.0 | 1.6 | 0.00 | 0.00 | 0.00 | 83 | 1017.5 |
| 20260505222214 | 16 | 115 | 1.6 | 4.8 | 0.00 | 0.00 | 0.00 | 83 | 1017.4 |
| 20260505221717 | 16 | 108 | 0.0 | 4.8 | 0.00 | 0.00 | 0.00 | 83 | 1017.6 |
| 20260505221004 | 16 | 61 | 0.0 | 3.2 | 0.00 | 0.00 | 0.00 | 83 | 1017.6 |
| 20260505220504 | 16 | 115 | 0.0 | 3.2 | 0.00 | 0.00 | 0.00 | 83 | 1017.7 |
| 20260505220005 | 16 | 103 | 1.6 | 4.8 | 0.00 | 0.00 | 0.00 | 83 | 1017.8 |
| 20260505215714 | 16 | 97 | 1.6 | 4.8 | 0.00 | 0.00 | 0.00 | 83 | 1017.6 |
| 20260505215003 | 16 | 71 | 1.6 | 4.8 | 0.00 | 0.00 | 0.00 | 83 | 1017.7 |
| 20260505214503 | 16 | 70 | 1.6 | 4.8 | 0.00 | 0.00 | 0.00 | 83 | 1017.6 |
| 20260505214213 | 16 | 76 | 1.6 | 4.8 | 0.00 | 0.00 | 0.00 | 83 | 1017.7 |
| 20260505213504 | 16 | 57 | 1.6 | 6.4 | 0.00 | 0.00 | 0.00 | 83 | 1017.8 |
| 20260505213213 | 16 | 46 | 1.6 | 6.4 | 0.00 | 0.00 | 0.00 | 83 | 1017.8 |
| 20260505212504 | 16 | 64 | 1.6 | 3.2 | 0.00 | 0.00 | 0.00 | 84 | 1018.0 |
| 20260505212003 | 16 | 84 | 1.6 | 6.4 | 0.00 | 0.00 | 0.00 | 84 | 1018.1 |
| 20260505211504 | 16 | 81 | 1.6 | 6.4 | 0.00 | 0.00 | 0.00 | 84 | 1018.1 |
| 20260505211003 | 16 | 63 | 1.6 | 4.8 | 0.00 | 0.00 | 0.00 | 84 | 1018.0 |
| 20260505210504 | 16 | 76 | 1.6 | 9.7 | 0.00 | 0.00 | 0.00 | 85 | 1018.2 |
| 20260505210004 | 16 | 74 | 1.6 | 9.7 | 0.00 | 0.00 | 0.00 | 85 | 1018.1 |
| 20260505205504 | 16 | 74 | 1.6 | 9.7 | 0.00 | 0.00 | 0.00 | 85 | 1018.1 |
| 20260505205003 | 16 | 94 | 1.6 | 9.7 | 0.00 | 0.00 | 0.00 | 85 | 1018.1 |
| 20260505204504 | 16 | 88 | 1.6 | 9.7 | 0.00 | 0.00 | 0.00 | 85 | 1018.1 |
| 20260505204218 | 16 | 76 | 1.6 | 9.7 | 0.00 | 0.00 | 0.00 | 85 | 1018.2 |
| 20260505203504 | 16 | 65 | 3.2 | 11.3 | 0.00 | 0.00 | 0.00 | 85 | 1018.3 |
| 20260505203003 | 16 | 84 | 3.2 | 11.3 | 0.00 | 0.00 | 0.00 | 86 | 1018.2 |
| 20260505202504 | 16 | 85 | 3.2 | 6.4 | 0.00 | 0.00 | 0.00 | 86 | 1018.2 |
| 20260505202004 | 16 | 74 | 3.2 | 12.9 | 0.00 | 0.00 | 0.00 | 86 | 1018.2 |
| 20260505201713 | 16 | 78 | 3.2 | 12.9 | 0.00 | 0.00 | 0.00 | 86 | 1018.3 |
| 20260505201216 | 16 | 78 | 3.2 | 8.0 | 0.00 | 0.00 | 0.00 | 86 | 1018.4 |
| 20260505200503 | 16 | 96 | 3.2 | 12.9 | 0.00 | 0.00 | 0.00 | 86 | 1018.2 |
| 20260505200003 | 16 | 99 | 3.2 | 12.9 | 0.00 | 0.00 | 0.00 | 86 | 1018.3 |
| 20260505195504 | 17 | 86 | 3.2 | 9.7 | 0.00 | 0.00 | 0.00 | 85 | 1018.3 |
| 20260505195003 | 17 | 70 | 3.2 | 9.7 | 0.00 | 0.00 | 0.00 | 85 | 1018.3 |
| 20260505194504 | 17 | 68 | 3.2 | 6.4 | 0.00 | 0.00 | 0.00 | 85 | 1018.1 |
| 20260505194003 | 17 | 80 | 4.8 | 12.9 | 0.00 | 0.00 | 0.00 | 85 | 1018.0 |
| 20260505193503 | 17 | 77 | 3.2 | 12.9 | 0.00 | 0.00 | 0.00 | 85 | 1018.2 |
| 20260505193003 | 17 | 75 | 3.2 | 16.1 | 0.00 | 0.00 | 0.00 | 84 | 1018.1 |
| 20260505192713 | 17 | 82 | 3.2 | 16.1 | 0.00 | 0.00 | 0.00 | 84 | 1018.2 |
| 20260505192003 | 17 | 89 | 3.2 | 12.9 | 0.00 | 0.00 | 0.00 | 84 | 1018.2 |
| 20260505191714 | 17 | 78 | 3.2 | 11.3 | 0.00 | 0.00 | 0.00 | 84 | 1018.2 |
| 20260505191004 | 17 | 55 | 3.2 | 16.1 | 0.00 | 0.00 | 0.00 | 84 | 1018.2 |
| 20260505190503 | 17 | 70 | 3.2 | 22.5 | 0.00 | 0.00 | 0.00 | 84 | 1018.1 |
| 20260505190003 | 17 | 67 | 3.2 | 22.5 | 0.00 | 0.00 | 0.00 | 84 | 1018.0 |
| 20260505185504 | 17 | 80 | 3.2 | 22.5 | 0.00 | 0.00 | 0.00 | 83 | 1017.7 |
| 20260505185213 | 17 | 86 | 3.2 | 9.7 | 0.00 | 0.00 | 0.00 | 83 | 1017.8 |
| 20260505184503 | 17 | 78 | 4.8 | 14.5 | 0.00 | 0.00 | 0.00 | 83 | 1017.7 |
| 20260505184004 | 17 | 87 | 4.8 | 14.5 | 0.00 | 0.00 | 0.00 | 83 | 1017.8 |
| 20260505183718 | 17 | 90 | 4.8 | 14.5 | 0.00 | 0.00 | 0.00 | 83 | 1017.8 |
| 20260505183004 | 17 | 78 | 3.2 | 6.4 | 0.00 | 0.00 | 0.00 | 83 | 1017.7 |
| 20260505182504 | 17 | 81 | 3.2 | 14.5 | 0.00 | 0.00 | 0.00 | 82 | 1017.7 |
| 20260505182003 | 17 | 82 | 4.8 | 14.5 | 0.00 | 0.00 | 0.00 | 82 | 1017.6 |
| 20260505181503 | 17 | 84 | 4.8 | 20.9 | 0.00 | 0.00 | 0.00 | 82 | 1017.7 |
| 20260505181003 | 17 | 78 | 3.2 | 20.9 | 0.00 | 0.00 | 0.00 | 83 | 1017.5 |
| 20260505180504 | 17 | 71 | 3.2 | 12.9 | 0.00 | 0.00 | 0.00 | 83 | 1017.6 |
| 20260505180003 | 17 | 84 | 4.8 | 16.1 | 0.00 | 0.00 | 0.00 | 83 | 1017.7 |
| 20260505175716 | 17 | 86 | 4.8 | 16.1 | 0.00 | 0.00 | 0.00 | 82 | 1017.5 |
| 20260505175003 | 17 | 67 | 6.4 | 12.9 | 0.00 | 0.00 | 0.00 | 82 | 1017.7 |
| 20260505174504 | 17 | 44 | 6.4 | 16.1 | 0.00 | 0.00 | 0.00 | 82 | 1017.8 |
| 20260505174215 | 17 | 41 | 6.4 | 16.1 | 0.00 | 0.00 | 0.00 | 82 | 1017.6 |
| 20260505173713 | 17 | 40 | 4.8 | 14.5 | 0.00 | 0.00 | 0.00 | 81 | 1017.8 |
| 20260505173216 | 17 | 54 | 4.8 | 11.3 | 0.00 | 0.00 | 0.00 | 80 | 1017.9 |
| 20260505172503 | 17 | 47 | 3.2 | 16.1 | 0.00 | 0.00 | 0.00 | 80 | 1017.5 |
| 20260505172003 | 17 | 45 | 3.2 | 16.1 | 0.00 | 0.00 | 0.00 | 80 | 1017.4 |
| 20260505171715 | 17 | 47 | 4.8 | 16.1 | 0.00 | 0.00 | 0.00 | 80 | 1017.4 |
| 20260505171003 | 17 | 56 | 3.2 | 11.3 | 0.00 | 0.00 | 0.00 | 80 | 1017.4 |
| 20260505170504 | 17 | 59 | 3.2 | 14.5 | 0.00 | 0.00 | 0.00 | 78 | 1017.4 |
| 20260505170214 | 17 | 62 | 3.2 | 14.5 | 0.00 | 0.00 | 0.00 | 77 | 1017.5 |
| 20260505165503 | 18 | 63 | 3.2 | 9.7 | 0.00 | 0.00 | 0.00 | 77 | 1017.4 |
| 20260505165004 | 18 | 64 | 4.8 | 17.7 | 0.00 | 0.00 | 0.00 | 75 | 1017.3 |
| 20260505164503 | 17 | 73 | 4.8 | 17.7 | 0.00 | 0.00 | 0.00 | 75 | 1017.7 |
| 20260505164216 | 18 | 76 | 4.8 | 14.5 | 0.00 | 0.00 | 0.00 | 75 | 1017.6 |
| 20260505163714 | 18 | 68 | 3.2 | 12.9 | 0.00 | 0.00 | 0.00 | 74 | 1017.5 |
| 20260505163003 | 18 | 73 | 3.2 | 12.9 | 0.00 | 0.00 | 0.00 | 74 | 1017.7 |
| 20260505162503 | 18 | 111 | 3.2 | 14.5 | 0.00 | 0.00 | 0.00 | 74 | 1017.6 |
| 20260505162003 | 18 | 101 | 4.8 | 14.5 | 0.00 | 0.00 | 0.00 | 74 | 1017.5 |
| 20260505161503 | 18 | 68 | 3.2 | 12.9 | 0.00 | 0.00 | 0.00 | 73 | 1017.6 |
| 20260505161003 | 18 | 65 | 3.2 | 9.7 | 0.00 | 0.00 | 0.00 | 73 | 1017.6 |
| 20260505160504 | 18 | 91 | 3.2 | 14.5 | 0.00 | 0.00 | 0.00 | 73 | 1017.5 |
| 20260505153003 | 18 | 88 | 3.2 | 14.5 | 0.00 | 0.00 | 0.00 | 72 | 1017.5 |
| 20260505152715 | 18 | 90 | 4.8 | 14.5 | 0.00 | 0.00 | 0.00 | 73 | 1017.4 |
| 20260505152004 | 19 | 95 | 3.2 | 12.9 | 0.00 | 0.00 | 0.00 | 70 | 1017.4 |
| 20260505151503 | 19 | 106 | 3.2 | 8.0 | 0.00 | 0.00 | 0.00 | 70 | 1017.7 |
| 20260505151004 | 19 | 98 | 6.4 | 16.1 | 0.00 | 0.00 | 0.00 | 69 | 1017.7 |
| 20260505150503 | 18 | 89 | 6.4 | 16.1 | 0.00 | 0.00 | 0.00 | 68 | 1017.5 |
| 20260505140504 | 20 | 93 | 4.8 | 12.9 | 0.00 | 0.00 | 0.00 | 65 | 1017.7 |
| 20260505130216 | 20 | 94 | 4.8 | 17.7 | 0.00 | 0.00 | 0.00 | 63 | 1017.8 |
| 20260505125003 | 20 | 95 | 4.8 | 16.1 | 0.00 | 0.00 | 0.00 | 61 | 1017.9 |
| 20260505124503 | 20 | 95 | 4.8 | 14.5 | 0.00 | 0.00 | 0.00 | 62 | 1017.9 |
| 20260505124003 | 20 | 113 | 3.2 | 16.1 | 0.00 | 0.00 | 0.00 | 61 | 1017.9 |
| 20260505123503 | 21 | 118 | 4.8 | 16.1 | 0.00 | 0.00 | 0.00 | 59 | 1018.1 |
| 20260505123003 | 21 | 95 | 4.8 | 14.5 | 0.00 | 0.00 | 0.00 | 62 | 1018.1 |
| 20260505122717 | 21 | 98 | 3.2 | 11.3 | 0.00 | 0.00 | 0.00 | 61 | 1018.1 |
| 20260505122004 | 20 | 97 | 3.2 | 12.9 | 0.00 | 0.00 | 0.00 | 63 | 1018.2 |
| 20260505121504 | 21 | 84 | 3.2 | 11.3 | 0.00 | 0.00 | 0.00 | 60 | 1018.2 |
| 20260505121004 | 20 | 77 | 3.2 | 6.4 | 0.00 | 0.00 | 0.00 | 63 | 1018.1 |
| 20260505120503 | 20 | 86 | 4.8 | 20.9 | 0.00 | 0.00 | 0.00 | 63 | 1018.2 |
| 20260505120004 | 20 | 99 | 4.8 | 20.9 | 0.00 | 0.00 | 0.00 | 64 | 1018.4 |
| 20260505115503 | 20 | 105 | 4.8 | 12.9 | 0.00 | 0.00 | 0.00 | 61 | 1018.4 |
| 20260505115003 | 20 | 110 | 4.8 | 12.9 | 0.00 | 0.00 | 0.00 | 64 | 1018.5 |
| 20260505114504 | 20 | 130 | 6.4 | 11.3 | 0.00 | 0.00 | 0.00 | 63 | 1018.5 |
| 20260505114004 | 20 | 138 | 6.4 | 17.7 | 0.00 | 0.00 | 0.00 | 61 | 1018.9 |
| 20260505113503 | 20 | 126 | 4.8 | 17.7 | 0.00 | 0.00 | 0.00 | 63 | 1018.6 |
| 20260505113004 | 20 | 105 | 4.8 | 16.1 | 0.00 | 0.00 | 0.00 | 63 | 1018.8 |
| 20260505112503 | 20 | 92 | 4.8 | 12.9 | 0.00 | 0.00 | 0.00 | 63 | 1018.7 |
| 20260505112004 | 20 | 91 | 3.2 | 12.9 | 0.00 | 0.00 | 0.00 | 64 | 1019.0 |
| 20260505111503 | 20 | 86 | 3.2 | 8.0 | 0.00 | 0.00 | 0.00 | 63 | 1019.0 |
| 20260505111004 | 20 | 109 | 4.8 | 14.5 | 0.00 | 0.00 | 0.00 | 61 | 1018.8 |
| 20260505110715 | 20 | 115 | 4.8 | 14.5 | 0.00 | 0.00 | 0.00 | 62 | 1019.0 |
| 20260505102004 | 20 | 103 | 3.2 | 12.9 | 0.00 | 0.00 | 0.00 | 62 | 1018.9 |
| 20260505101503 | 20 | 98 | 3.2 | 9.7 | 0.00 | 0.00 | 0.00 | 58 | 1019.0 |
| 20260505101004 | 20 | 115 | 3.2 | 14.5 | 0.00 | 0.00 | 0.00 | 59 | 1018.8 |
| 20260505100504 | 21 | 142 | 3.2 | 14.5 | 0.00 | 0.00 | 0.00 | 58 | 1018.8 |
| 20260505100213 | 20 | 132 | 4.8 | 14.5 | 0.00 | 0.00 | 0.00 | 60 | 1019.0 |
| 20260505095716 | 20 | 117 | 3.2 | 11.3 | 0.00 | 0.00 | 0.00 | 61 | 1018.8 |
| 20260505095004 | 20 | 125 | 3.2 | 9.7 | 0.00 | 0.00 | 0.00 | 60 | 1018.9 |
| 20260505094503 | 21 | 138 | 4.8 | 12.9 | 0.00 | 0.00 | 0.00 | 59 | 1019.1 |
| 20260505094003 | 21 | 142 | 4.8 | 12.9 | 0.00 | 0.00 | 0.00 | 61 | 1019.1 |
| 20260505093504 | 21 | 152 | 3.2 | 11.3 | 0.00 | 0.00 | 0.00 | 58 | 1019.1 |
| 20260505093004 | 21 | 150 | 1.6 | 6.4 | 0.00 | 0.00 | 0.00 | 59 | 1019.1 |
| 20260505092714 | 21 | 154 | 1.6 | 9.7 | 0.00 | 0.00 | 0.00 | 60 | 1018.9 |
| 20260505092004 | 20 | 117 | 3.2 | 9.7 | 0.00 | 0.00 | 0.00 | 62 | 1019.0 |
| 20260505091503 | 20 | 113 | 3.2 | 11.3 | 0.00 | 0.00 | 0.00 | 64 | 1018.9 |
| 20260505091218 | 20 | 110 | 3.2 | 11.3 | 0.00 | 0.00 | 0.00 | 63 | 1019.0 |
| 20260505090716 | 21 | 94 | 3.2 | 8.0 | 0.00 | 0.00 | 0.00 | 63 | 1018.8 |
| 20260505090004 | 21 | 114 | 3.2 | 12.9 | 0.00 | 0.00 | 0.00 | 63 | 1019.0 |
| 20260505085503 | 21 | 117 | 3.2 | 9.7 | 0.00 | 0.00 | 0.00 | 61 | 1019.0 |
| 20260505085003 | 21 | 110 | 3.2 | 9.7 | 0.00 | 0.00 | 0.00 | 59 | 1018.8 |
| 20260505084503 | 21 | 117 | 4.8 | 11.3 | 0.00 | 0.00 | 0.00 | 61 | 1019.1 |
| 20260505084004 | 21 | 142 | 3.2 | 11.3 | 0.00 | 0.00 | 0.00 | 59 | 1018.8 |
| 20260505083504 | 23 | 175 | 3.2 | 11.3 | 0.00 | 0.00 | 0.00 | 55 | 1018.5 |
| 20260505083003 | 23 | 177 | 3.2 | 11.3 | 0.00 | 0.00 | 0.00 | 55 | 1018.8 |
| 20260505082503 | 23 | 185 | 3.2 | 4.8 | 0.00 | 0.00 | 0.00 | 52 | 1018.4 |
| 20260505082003 | 22 | 184 | 3.2 | 6.4 | 0.00 | 0.00 | 0.00 | 51 | 1018.7 |
| 20260505081504 | 23 | 158 | 1.6 | 6.4 | 0.00 | 0.00 | 0.00 | 51 | 1018.7 |
| 20260505081213 | 23 | 154 | 1.6 | 4.8 | 0.00 | 0.00 | 0.00 | 51 | 1018.7 |
| 20260505080716 | 24 | 188 | 1.6 | 6.4 | 0.00 | 0.00 | 0.00 | 49 | 1018.5 |
| 20260505080004 | 23 | 205 | 1.6 | 6.4 | 0.00 | 0.00 | 0.00 | 51 | 1018.7 |
| 20260505075503 | 23 | 183 | 1.6 | 3.2 | 0.00 | 0.00 | 0.00 | 51 | 1018.7 |
| 20260505075004 | 23 | 193 | 1.6 | 3.2 | 0.00 | 0.00 | 0.00 | 52 | 1018.7 |
| 20260505074503 | 22 | 193 | 1.6 | 4.8 | 0.00 | 0.00 | 0.00 | 51 | 1018.6 |
| 20260505074004 | 21 | 193 | 3.2 | 4.8 | 0.00 | 0.00 | 0.00 | 53 | 1018.7 |
| 20260505073504 | 21 | 195 | 3.2 | 6.4 | 0.00 | 0.00 | 0.00 | 57 | 1018.8 |
| 20260505073004 | 21 | 193 | 3.2 | 6.4 | 0.00 | 0.00 | 0.00 | 56 | 1018.8 |
| 20260505072504 | 21 | 198 | 3.2 | 9.7 | 0.00 | 0.00 | 0.00 | 57 | 1018.9 |
| 20260505072004 | 21 | 200 | 3.2 | 9.7 | 0.00 | 0.00 | 0.00 | 58 | 1018.9 |
| 20260505071504 | 21 | 193 | 1.6 | 4.8 | 0.00 | 0.00 | 0.00 | 57 | 1019.0 |
| 20260505071004 | 20 | 197 | 1.6 | 4.8 | 0.00 | 0.00 | 0.00 | 59 | 1018.9 |
| 20260505070504 | 20 | 195 | 1.6 | 3.2 | 0.00 | 0.00 | 0.00 | 60 | 1018.9 |
| 20260505070004 | 20 | 188 | 1.6 | 3.2 | 0.00 | 0.00 | 0.00 | 60 | 1019.0 |
| 20260505065504 | 20 | 175 | 0.0 | 3.2 | 0.00 | 0.00 | 0.00 | 60 | 1019.0 |
| 20260505065003 | 20 | 176 | 0.0 | 1.6 | 0.00 | 0.00 | 0.00 | 61 | 1019.0 |
| 20260505064503 | 20 | 160 | 0.0 | 3.2 | 0.00 | 0.00 | 0.00 | 61 | 1018.9 |
| 20260505064003 | 20 | 182 | 1.6 | 3.2 | 0.00 | 0.00 | 0.00 | 61 | 1019.0 |
| 20260505063503 | 20 | 185 | 1.6 | 3.2 | 0.00 | 0.00 | 0.00 | 61 | 1018.9 |
| 20260505063004 | 20 | 165 | 0.0 | 3.2 | 0.00 | 0.00 | 0.00 | 61 | 1018.9 |
| 20260505062504 | 20 | 174 | 1.6 | 3.2 | 0.00 | 0.00 | 0.00 | 61 | 1018.8 |
| 20260505062003 | 20 | 165 | 0.0 | 3.2 | 0.00 | 0.00 | 0.00 | 60 | 1018.9 |
| 20260505061717 | 20 | 159 | 0.0 | 3.2 | 0.00 | 0.00 | 0.00 | 61 | 1018.9 |
| 20260505061004 | 18 | 180 | 0.0 | 1.6 | 0.00 | 0.00 | 0.00 | 66 | 1019.0 |
| 20260505060503 | 18 | 179 | 1.6 | 1.6 | 0.00 | 0.00 | 0.00 | 65 | 1019.0 |
| 20260505060003 | 18 | 170 | 0.0 | 1.6 | 0.00 | 0.00 | 0.00 | 65 | 1019.0 |
| 20260505055503 | 18 | 162 | 0.0 | 1.6 | 0.00 | 0.00 | 0.00 | 65 | 1019.0 |
| 20260505055217 | 18 | 167 | 0.0 | 1.6 | 0.00 | 0.00 | 0.00 | 66 | 1019.0 |
| 20260505054504 | 18 | 158 | 1.6 | 3.2 | 0.00 | 0.00 | 0.00 | 66 | 1018.9 |
| 20260505054004 | 18 | 151 | 1.6 | 3.2 | 0.00 | 0.00 | 0.00 | 67 | 1018.8 |
| 20260505053716 | 18 | 157 | 1.6 | 3.2 | 0.00 | 0.00 | 0.00 | 66 | 1018.9 |
| 20260505053004 | 17 | 162 | 1.6 | 3.2 | 0.00 | 0.00 | 0.00 | 68 | 1019.1 |
| 20260505052503 | 17 | 149 | 1.6 | 3.2 | 0.00 | 0.00 | 0.00 | 68 | 1019.0 |
| 20260505052003 | 17 | 152 | 0.0 | 3.2 | 0.00 | 0.00 | 0.00 | 67 | 1019.1 |
| 20260505051504 | 17 | 178 | 0.0 | 1.6 | 0.00 | 0.00 | 0.00 | 66 | 1019.0 |
| 20260505051004 | 17 | 182 | 0.0 | 1.6 | 0.00 | 0.00 | 0.00 | 68 | 1018.9 |
| 20260505050713 | 17 | 183 | 0.0 | 1.6 | 0.00 | 0.00 | 0.00 | 68 | 1018.7 |
| 20260505050216 | 16 | 182 | 0.0 | 1.6 | 0.00 | 0.00 | 0.00 | 70 | 1018.7 |
| 20260505041713 | 15 | 167 | 0.0 | 3.2 | 0.00 | 0.00 | 0.00 | 74 | 1018.4 |
| 20260505041216 | 15 | 146 | 0.0 | 1.6 | 0.00 | 0.00 | 0.00 | 74 | 1018.3 |